This is the latest recevied weather packets stored in our database for station/object K1TTC. If no packets are shown the sender has not sent any weather packets the latest 10 day(s).
| Time | Temp. | Humidity | Pressure | Rain* | Wind** | Luminosity | Snow |
|---|---|---|---|---|---|---|---|
| 1787791483 | 22.78° C | 60% | 1019.5 hPa | 0 mm | - | 0 W/m² | - |
| 1787790885 | 22.78° C | 59% | 1019.3 hPa | 0 mm | - | 0 W/m² | - |
| 1787790279 | 22.78° C | 59% | 1019.3 hPa | 0 mm | - | 0 W/m² | - |
| 1787789679 | 23.33° C | 59% | 1019.3 hPa | 0 mm | - | 0 W/m² | - |
| 1787789078 | 23.33° C | 58% | 1019.2 hPa | 0 mm | - | 0 W/m² | - |
| 1787788478 | 23.89° C | 57% | 1018.9 hPa | 0 mm | - | 0 W/m² | - |
| 1787787876 | 23.89° C | 57% | 1018.8 hPa | 0 mm | - | 0 W/m² | - |
| 1787787281 | 24.44° C | 56% | 1018.7 hPa | 0 mm | - | 0 W/m² | - |
| 1787786676 | 24.44° C | 55% | 1018.5 hPa | 0 mm | - | 0 W/m² | - |
| 1787786076 | 24.44° C | 55% | 1018.4 hPa | 0 mm | - | 0 W/m² | - |
| 1787785477 | 25° C | 54% | 1018.4 hPa | 0 mm | - | 7 W/m² | - |
| 1787784878 | 25° C | 54% | 1018.5 hPa | 0 mm | - | 12 W/m² | - |
| 1787784276 | 25.56° C | 53% | 1018.5 hPa | 0 mm | - | 16 W/m² | - |
| 1787783676 | 25.56° C | 53% | 1018.5 hPa | 0 mm | - | 21 W/m² | - |
| 1787783079 | 26.11° C | 52% | 1018.5 hPa | 0 mm | - | 32 W/m² | - |
| 1787782477 | 26.11° C | 51% | 1018.4 hPa | 0 mm | - | 49 W/m² | - |
| 1787781874 | 26.67° C | 50% | 1018.4 hPa | 0 mm | - | 70 W/m² | - |
| 1787781275 | 27.78° C | 47% | 1018.3 hPa | 0 mm | - | 63 W/m² | - |
| 1787780674 | 27.78° C | 45% | 1018.2 hPa | 0 mm | - | 86 W/m² | - |
| 1787780072 | 27.22° C | 45% | 1018.3 hPa | 0 mm | - | 120 W/m² | - |
| 1787779472 | 27.22° C | 45% | 1018.2 hPa | 0 mm | - | 109 W/m² | - |
| 1787778874 | 27.22° C | 45% | 1018.3 hPa | 0 mm | - | 81 W/m² | - |
| 1787778272 | 27.78° C | 44% | 1018.4 hPa | 0 mm | - | 69 W/m² | - |
| 1787777670 | 28.33° C | 42% | 1018.4 hPa | 0 mm | - | 60 W/m² | - |
| 1787777070 | 28.33° C | 42% | 1018.4 hPa | 0 mm | - | 95 W/m² | - |
* Rain latest hour (hover to see other rain measurements)
** Current wind speed in m/s (hover to see current wind gust speed)